Flag for U.S.A. Weather past 2 weeks in Houston, Texas, U.S.A.

Now
59 °F

Passing clouds.


Feels Like: 57 °F
Forecast: 50 / 75 °F
Wind: 9 mph from North

Location: Houston Hobby Airport

Current Time: Mar 26, 2015 at 11:37:45 PM

Latest Report: Mar 26, 2015 at 10:53 PM


Visibility: 10 mi

Pressure: 30.09 "Hg

Humidity: 69%

Dew point: 49 °F

Location of HoustonLocation

Historic Weather in Houston — Graph

°F

Houston temperature yesterday

Maximum temperature yesterday: 77 °F (at 2:53 PM)
Minimum temperature yesterday: 59 °F (at 3:53 AM)
Average temperature yesterday: 67 °F

Past Weeks' High & Low Weather Summary

 TemperatureHumidityPressure
High80 °F (Mar 17, 2:53 PM)100% (Mar 12, 6:01 AM)30.29 "Hg (Mar 12, 6:01 AM)
Low55 °F (Mar 14, 5:53 AM)41% (Mar 23, 4:53 PM)29.86 "Hg (Mar 26, 4:53 AM)
Average66 °F83%30.05 "Hg
* Reported Mar 11 8:53 PM — Mar 26 8:53 PM, Houston, Weather by CustomWeather, © 2015

Note: Actual official high and low records may vary slightly from our data, if they occured in-between our weather recording intervals... More about our weather records

Advertising

Houston weather history for previous 24 hours

 ConditionsComfort  
Time TempWeatherWind HumidityBarometerVisibility
8:53 PM
Thu, Mar 26
63 °FPassing clouds.18 mph58%30.05 "Hg10 mi
7:53 PM64 °FPartly sunny.16 mph58%30.03 "Hg10 mi
6:53 PM65 °FPartly sunny.17 mph59%30.02 "Hg10 mi
5:53 PM67 °FPartly sunny.13 mph55%30.01 "Hg10 mi
4:53 PM67 °FPartly sunny.17 mph57%29.98 "Hg10 mi
3:53 PM67 °FScattered clouds.20 mph59%29.96 "Hg10 mi
2:53 PM67 °FScattered clouds.24 mph59%29.96 "Hg10 mi
1:53 PM66 °FScattered clouds.17 mph63%29.97 "Hg10 mi
12:53 PM63 °FOvercast.23 mph75%29.97 "Hg10 mi
11:53 AM62 °FOvercast.18 mph86%29.97 "Hg9 mi
10:53 AM61 °FLight rain. Fog.20 mph93%29.99 "Hg5 mi
9:53 AM68 °FOvercast.9 mph93%29.96 "Hg10 mi
8:53 AM67 °FFog.No wind100%29.93 "Hg4 mi
7:53 AM67 °FLight rain. Mostly cloudy.3 mph97%29.91 "Hg8 mi
6:53 AM67 °FOvercast.3 mph93%29.90 "Hg10 mi
5:53 AM66 °FMostly cloudy.No wind96%29.88 "Hg10 mi
4:53 AM65 °FPassing clouds.No wind97%29.86 "Hg10 mi
3:53 AM65 °FPassing clouds.3 mph97%29.87 "Hg9 mi
2:53 AM65 °FPassing clouds.6 mph97%29.88 "Hg9 mi
1:53 AM64 °FPassing clouds.5 mph97%29.90 "Hg10 mi
12:53 AM63 °FPassing clouds.No wind97%29.93 "Hg10 mi
11:53 PM
Wed, Mar 25
65 °FPassing clouds.No wind94%29.95 "Hg10 mi
Weather by CustomWeather, © 2015

See weather overviewHow to use our weather pages